CW4610 Weather Reports


Display with metric or nautical units.
time (UTC)temp
F
wind
direction
speed
MPH
gust
MPH
rain 1hr
in
rain 24hr
in
rain mn
in
humidity
%
barometer
mb
20260901164019 65 68 2.0 5.0 0.00 0.00 0.00 79 1007.6
20260901163019 64 90 2.0 5.0 0.00 0.00 0.00 83 1007.7
20260901162020 63 113 3.0 6.0 0.00 0.00 0.00 84 1007.7
20260901161019 62 68 2.0 6.0 0.00 0.00 0.00 86 1007.8
20260901160019 61 68 3.0 6.0 0.00 0.00 0.00 88 1007.8
20260901155059 60 90 4.0 8.0 0.00 0.00 0.00 89 1007.8
20260901154024 59 113 2.0 6.0 0.00 0.00 0.00 90 1007.8
20260901153019 59 135 2.0 5.0 0.00 0.00 0.00 92 1007.8
20260901152018 58 113 1.0 3.0 0.00 0.00 0.00 93 1007.8
20260901151019 58 203 1.0 3.0 0.00 0.00 0.00 95 1007.8
20260901150019 56 225 1.0 2.0 0.00 0.00 0.00 95 1007.7
20260901145119 55 9 0.0 0.0 0.00 0.00 0.00 94 1007.7
20260901144019 55 0 1.0 2.0 0.00 0.00 0.00 93 1007.7
20260901143058 55 23 1.0 2.0 0.00 0.00 0.00 93 1007.6
20260901142018 55 23 1.0 2.0 0.00 0.00 0.00 92 1007.6
20260901141018 55 0 1.0 2.0 0.00 0.00 0.00 92 1007.5
20260901140018 55 68 1.0 3.0 0.00 0.00 0.00 93 1007.3
20260901135019 55 23 1.0 2.0 0.00 0.00 0.00 92 1007.3
20260901134018 55 24 0.0 0.0 0.00 0.00 0.00 91 1007.2
20260901133019 56 23 1.0 1.0 0.00 0.00 0.00 91 1007.2
20260901132019 56 0 0.0 0.0 0.00 0.00 0.00 91 1007.2
20260901131018 56 0 0.0 2.0 0.00 0.00 0.00 91 1007.2
20260901130019 56 45 1.0 2.0 0.00 0.00 0.00 91 1007.2
20260901125019 56 45 1.0 2.0 0.00 0.00 0.00 91 1007.2
20260901124018 56 45 1.0 2.0 0.00 0.00 0.00 92 1007.3
20260901123019 56 203 1.0 2.0 0.00 0.00 0.00 92 1007.3
20260901122018 56 212 0.0 0.0 0.00 0.00 0.00 92 1007.3
20260901121018 56 212 0.0 0.0 0.00 0.00 0.00 92 1007.3
20260901120018 56 212 0.0 0.0 0.00 0.00 0.00 92 1007.4
20260901115018 55 203 0.0 1.0 0.00 0.00 0.00 92 1007.4
20260901114018 55 68 1.0 2.0 0.00 0.00 0.00 92 1007.3
20260901113018 55 68 0.0 1.0 0.00 0.00 0.00 92 1007.4
20260901112019 55 68 1.0 2.0 0.00 0.00 0.00 92 1007.5
20260901111058 55 341 0.0 0.0 0.00 0.00 0.00 92 1007.7
20260901110058 55 338 1.0 2.0 0.00 0.00 0.00 91 1007.6
20260901105058 55 338 2.0 3.0 0.00 0.00 0.00 90 1007.6
20260901104058 55 338 2.0 3.0 0.00 0.00 0.00 90 1007.6
20260901103018 56 23 2.0 3.0 0.00 0.00 0.00 90 1007.4
20260901102018 56 45 2.0 3.0 0.00 0.00 0.00 90 1007.3
20260901101018 56 23 2.0 2.0 0.00 0.00 0.00 90 1007.3
20260901100018 56 118 0.0 0.0 0.00 0.00 0.00 90 1007.4
20260901095018 56 113 1.0 2.0 0.00 0.00 0.00 90 1007.4
20260901094018 57 74 0.0 0.0 0.00 0.00 0.00 89 1007.5
20260901093018 57 68 1.0 2.0 0.00 0.00 0.00 89 1007.7
20260901092019 57 68 1.0 2.0 0.00 0.00 0.00 89 1007.7
20260901091018 57 23 1.0 3.0 0.00 0.00 0.00 89 1007.7
20260901090018 57 45 1.0 2.0 0.00 0.00 0.00 89 1007.6
20260901085017 58 109 0.0 0.0 0.00 0.00 0.00 89 1007.6
20260901084017 58 113 2.0 3.0 0.00 0.00 0.00 88 1007.7
20260901083018 58 23 1.0 2.0 0.00 0.00 0.00 87 1007.7
20260901082018 58 0 0.0 2.0 0.00 0.00 0.00 87 1007.7
20260901081018 58 0 2.0 2.0 0.00 0.00 0.00 86 1007.7
20260901080018 59 40 0.0 0.0 0.00 0.00 0.00 86 1007.6
20260901075018 59 45 0.0 2.0 0.00 0.00 0.00 86 1007.6
20260901074019 59 113 1.0 2.0 0.00 0.00 0.00 85 1007.6
20260901073019 60 113 1.0 2.0 0.00 0.00 0.00 84 1007.6
20260901072030 60 113 1.0 2.0 0.00 0.00 0.00 84 1007.6
20260901071019 60 113 1.0 2.0 0.00 0.00 0.00 84 1007.7
20260901070019 61 113 0.0 1.0 0.00 0.00 0.00 83 1007.7
20260901065018 61 113 1.0 1.0 0.00 0.00 0.00 82 1007.7
20260901064019 61 103 0.0 0.0 0.00 0.00 0.00 80 1007.5
20260901063019 62 103 0.0 0.0 0.00 0.00 0.00 80 1007.5
20260901062019 62 103 0.0 0.0 0.00 0.00 0.00 79 1007.6
20260901061019 63 113 0.0 1.0 0.00 0.00 0.00 78 1007.6
20260901060019 63 113 1.0 3.0 0.00 0.00 0.00 78 1007.7
20260901055058 64 90 0.0 1.0 0.00 0.00 0.00 77 1007.7
20260901054018 64 90 1.0 2.0 0.00 0.00 0.00 76 1007.7
20260901053018 65 113 1.0 2.0 0.00 0.00 0.00 75 1007.7
20260901052018 65 68 1.0 3.0 0.00 0.00 0.00 74 1007.7
20260901051018 65 68 2.0 3.0 0.00 0.00 0.00 74 1007.8
20260901050058 66 68 1.0 3.0 0.00 0.00 0.00 73 1007.8
20260901045019 66 113 1.0 2.0 0.00 0.00 0.00 72 1007.8
20260901044019 67 113 2.0 3.0 0.00 0.00 0.00 71 1007.8
20260901043019 67 113 3.0 5.0 0.00 0.00 0.00 70 1007.8
20260901042019 68 113 2.0 4.0 0.00 0.00 0.00 69 1007.8
20260901041018 68 113 3.0 5.0 0.00 0.00 0.00 69 1007.8
20260901040019 69 113 3.0 5.0 0.00 0.00 0.00 68 1007.7
20260901035018 69 113 3.0 7.0 0.00 0.00 0.00 67 1007.7
20260901034552 70 180 2.0 4.0 0.00 0.00 0.00 67
20260831165519 67 225 1.0 4.0 0.00 0.01 0.00 76 1013.4